Weather History for KBDR - March, 2014

Change the Weather History Date:

Thursday, March 20, 2014

  Actual Average Record
Temperature  
Mean Temperature 48 °F 40 °F  
Max Temperature 55 °F 48 °F 68 °F (2010)
Min Temperature 40 °F 32 °F 11 °F (1949)
Degree Days  
Heating Degree Days 17 25  
Month to date heating degree days 637 548  
Since 1 July heating degree days 4685 4435  
Cooling Degree Days 0 0  
Month to date cooling degree days 0 0  
Year to date cooling degree days 0 0  
Moisture  
Dew Point 35 °F    
Average Humidity 66    
Maximum Humidity 100    
Minimum Humidity 32    
Precipitation  
Precipitation 0.08 in 0.13 in 1.12 in (1951)
Month to date precipitation 1.33 2.54  
Year to date precipitation 8.31 8.43  
Snow  
Snow 0.00 in 0.10 in 5.50 in (1958)
Month to date snowfall 0.1 4.0  
Since 1 July snowfall 56.3 25.6  
Snow Depth 0.00 in    
Sea Level Pressure  
Sea Level Pressure 29.76 in    
Wind  
Wind Speed 13 mph (WNW)    
Max Wind Speed 28 mph    
Max Gust Speed 38 mph    
Visibility 9 miles    
Events Rain    
T = Trace of Precipitation, MM = Missing Value Source: NWS Daily Summary

Daily Weather History Graph

Daily Weather History Graph

Search for Another Location

Airport or City:

Trip Planner

Search our weather history database for the weather conditions in past years. The results will help you decide how hot, cold, wet, or windy it might be!

Date:

Astronomy

Mar. 20, 2014 Rise Set
Actual Time 6:55 AM EDT 7:04 PM EDT
Civil Twilight 6:28 AM EDT 7:32 PM EDT
Nautical Twilight 5:56 AM EDT 8:04 PM EDT
Astronomical Twilight 5:23 AM EDT 8:37 PM EDT
Moon 11:24 PM EDT (3/20) 8:58 AM EDT (3/20)
Length of Visible Light 13h 03m
Length of Day
12h 08m
Waning Gibbous, 84% of the Moon is Illuminated
Mar 20
Waning Gibbous
Mar 23
Last Quarter
Mar 30
New
Apr 7
First Quarter
Apr 15
Full

Hourly Weather History & Observations

Time (EDT) Temp. Windchill Dew Point Humidity Pressure Visibility Wind Dir Wind Speed Gust Speed Precip Events Conditions
12:29 AM 39.0 °F 31.8 °F 39.0 °F 100% 29.87 in 1.8 mi NNE 11.5 mph - 0.28 in Rain Heavy Rain
12:37 AM 39.9 °F 34.5 °F 39.0 °F 97% 29.86 in 3.0 mi North 8.1 mph - 0.32 in Rain Rain
12:52 AM 41.0 °F 34.3 °F 39.9 °F 96% 29.84 in 4.0 mi NE 11.5 mph - 0.36 in Rain Rain
1:35 AM 41.0 °F 34.3 °F 41.0 °F 100% 29.81 in 6.0 mi ENE 11.5 mph - 0.08 in Rain Light Rain
1:49 AM 41.0 °F 34.3 °F 41.0 °F 100% 29.80 in 10.0 mi NE 11.5 mph - 0.10 in Rain Light Rain
1:52 AM 41.0 °F 34.7 °F 41.0 °F 100% 29.80 in 10.0 mi ENE 10.4 mph - 0.10 in   Overcast
2:01 AM 42.1 °F 35.7 °F 41.0 °F 96% 29.78 in 10.0 mi NE 11.5 mph - N/A   Overcast
2:52 AM 42.1 °F 36.1 °F 41.0 °F 96% 29.75 in 7.0 mi NE 10.4 mph - N/A   Overcast
3:13 AM 42.1 °F 37.1 °F 41.0 °F 96% 29.74 in 10.0 mi NNE 8.1 mph - N/A   Overcast
3:52 AM 41.0 °F 35.8 °F 39.9 °F 96% 29.73 in 10.0 mi North 8.1 mph - N/A   Overcast
4:52 AM 41.0 °F 36.4 °F 39.9 °F 96% 29.71 in 10.0 mi North 6.9 mph - N/A   Overcast
5:52 AM 41.0 °F 38.0 °F 39.0 °F 93% 29.73 in 10.0 mi West 4.6 mph - N/A   Overcast
6:01 AM 41.0 °F 36.4 °F 39.0 °F 93% 29.73 in 9.0 mi NW 6.9 mph - N/A   Overcast
6:29 AM 39.9 °F 36.7 °F 39.0 °F 97% 29.73 in 8.0 mi WNW 4.6 mph - N/A   Overcast
6:52 AM 39.9 °F 36.7 °F 39.0 °F 97% 29.73 in 9.0 mi West 4.6 mph - N/A   Overcast
7:44 AM 39.9 °F 37.8 °F 39.0 °F 97% 29.71 in 6.0 mi WNW 3.5 mph - N/A   Overcast
7:52 AM 39.9 °F 36.7 °F 39.9 °F 100% 29.71 in 5.0 mi West 4.6 mph - N/A   Overcast
8:17 AM 39.9 °F 34.5 °F 39.0 °F 97% 29.73 in 8.0 mi WSW 8.1 mph - N/A   Overcast
8:52 AM 43.0 °F 37.2 °F 39.9 °F 89% 29.74 in 10.0 mi West 10.4 mph - N/A   Overcast
9:15 AM 44.1 °F 37.7 °F 41.0 °F 89% 29.73 in 10.0 mi West 12.7 mph - N/A   Overcast
9:52 AM 45.0 °F 39.3 °F 41.0 °F 86% 29.74 in 10.0 mi SW 11.5 mph - N/A   Mostly Cloudy
10:05 AM 44.1 °F 38.1 °F 39.0 °F 82% 29.74 in 10.0 mi SW 11.5 mph - N/A   Partly Cloudy
10:44 AM 50.0 °F - 39.0 °F 66% 29.72 in 10.0 mi West 16.1 mph 24.2 mph N/A   Clear
10:52 AM 51.1 °F - 37.9 °F 61% 29.72 in 10.0 mi WNW 20.7 mph 28.8 mph N/A   Clear
11:52 AM 52.0 °F - 35.1 °F 53% 29.72 in 10.0 mi WNW 23.0 mph 31.1 mph N/A   Mostly Cloudy
12:52 PM 52.0 °F - 33.1 °F 49% 29.72 in 10.0 mi WNW 25.3 mph 29.9 mph N/A   Mostly Cloudy
1:52 PM 52.0 °F - 26.1 °F 37% 29.71 in 10.0 mi WNW 18.4 mph 28.8 mph N/A   Mostly Cloudy
2:52 PM 55.0 °F - 26.1 °F 33% 29.70 in 10.0 mi West 16.1 mph 31.1 mph N/A   Scattered Clouds
3:52 PM 53.1 °F - 27.0 °F 37% 29.70 in 10.0 mi West 12.7 mph 19.6 mph N/A   Mostly Cloudy
4:52 PM 53.1 °F - 26.1 °F 35% 29.71 in 10.0 mi West 15.0 mph 24.2 mph N/A   Overcast
5:52 PM 51.1 °F - 27.0 °F 39% 29.74 in 10.0 mi West 15.0 mph 23.0 mph N/A   Mostly Cloudy
6:52 PM 48.9 °F - 26.1 °F 41% 29.76 in 10.0 mi West 18.4 mph 27.6 mph N/A   Partly Cloudy
7:52 PM 46.9 °F - 27.0 °F 46% 29.79 in 10.0 mi WNW 12.7 mph 20.7 mph N/A   Partly Cloudy
8:52 PM 45.0 °F 38.9 °F 25.0 °F 46% 29.82 in 10.0 mi West 12.7 mph 20.7 mph N/A   Clear
9:52 PM 45.0 °F 38.2 °F 25.0 °F 46% 29.84 in 10.0 mi West 15.0 mph 23.0 mph N/A   Scattered Clouds
10:52 PM 43.0 °F 35.7 °F 26.1 °F 51% 29.86 in 10.0 mi West 15.0 mph 24.2 mph N/A   Mostly Cloudy
11:52 PM 41.0 °F 32.8 °F 23.0 °F 49% 29.87 in 10.0 mi West 16.1 mph 26.5 mph N/A   Clear